Location: Newark
(48.2308°N, 120.8549°W)
Time: 01:00:52
(UTC+00:00)

Transit 2A Rocket - Pass Details

Date: 03 June 2020
Orbit: 584 x 919 km, 66.7° (Epoch: 13 July)

Event Time Altitude Azimuth Distance (km) Brightness Sun altitude
Rises 15:24:45 0° 316° (NW) 3,527 8.1 30.2°
Reaches altitude 10° 15:27:39 10° 304° (NW) 2,605 7.4 30.7°
Maximum altitude 15:32:29 25° 252° (WSW) 1,767 6.6 31.5°
Drops below altitude 10° 15:37:17 10° 200° (SSW) 2,594 7.7 32.3°
Sets 15:40:12 0° 187° (S) 3,509 8.4 32.8°
